Powrót do katalogu

USA 560

AktywnyMilitariaVLEO
NORAD 65706·PAYLOAD·🇺🇸 United States

Wystrzelony Sep 22, 2025 z Vandenberg Space Force Base

Loading…

Następne Przeloty (najbliższe 24 godziny)

TLE

NieaktualneSource: Mike McCants

Epoka: Aug 9, 2026, 20:54 UTC

1 65706U 25213C   26221.87091948 0.00000000  00000-0  00000-0 0    09
2 65706  70.0160 252.1616 0004000 248.2268 111.7732 14.96713800    00

Śledź USA 560 w czasie rzeczywistym z AllMySat

Download on the App Store